This is the latest recevied weather packets stored in our database for station/object KD8OZS. If no packets are shown the sender has not sent any weather packets the latest 10 day(s).
| Time | Temp. | Humidity | Pressure | Rain* | Wind** | Luminosity | Snow |
|---|---|---|---|---|---|---|---|
| 1787944916 | 23.89° C | 69% | 1013.9 hPa | 0 mm | - | 89 W/m² | - |
| 1787944614 | 24.44° C | 67% | 1013.7 hPa | 0 mm | - | 109 W/m² | - |
| 1787944310 | 25° C | 65% | 1013.8 hPa | 0 mm | - | 172 W/m² | - |
| 1787944006 | 25° C | 65% | 1013.7 hPa | 0 mm | - | 747 W/m² | - |
| 1787943701 | 24.44° C | 67% | 1013.8 hPa | 0 mm | - | 193 W/m² | - |
| 1787943396 | 24.44° C | 65% | 1013.7 hPa | 0 mm | - | 142 W/m² | - |
| 1787943091 | 25° C | 65% | 1013.8 hPa | 0 mm | - | 753 W/m² | - |
| 1787942785 | 25.56° C | 61% | 1013.7 hPa | 0 mm | - | 705 W/m² | - |
| 1787942480 | 25.56° C | 68% | 1013.9 hPa | 0 mm | - | 797 W/m² | - |
| 1787942175 | 25° C | 62% | 1014.1 hPa | 0 mm | - | 858 W/m² | - |
| 1787941870 | 25° C | 63% | 1014.1 hPa | 0 mm | - | 875 W/m² | - |
| 1787941569 | 24.44° C | 67% | 1014 hPa | 0 mm | - | 878 W/m² | - |
| 1787941264 | 24.44° C | 68% | 1014 hPa | 0 mm | - | 927 W/m² | - |
| 1787940957 | 23.89° C | 69% | 1014.1 hPa | 0 mm | - | 180 W/m² | - |
| 1787940656 | 24.44° C | 67% | 1014 hPa | 0 mm | - | 176 W/m² | - |
| 1787940355 | 24.44° C | 68% | 1014 hPa | 0 mm | - | 282 W/m² | - |
| 1787940049 | 23.89° C | 68% | 1014.4 hPa | 0 mm | - | 886 W/m² | - |
| 1787939749 | 23.33° C | 69% | 1014.2 hPa | 0 mm | - | 109 W/m² | - |
| 1787939444 | 24.44° C | 67% | 1014.1 hPa | 0 mm | - | 97 W/m² | - |
| 1787939139 | 24.44° C | 70% | 1014.1 hPa | 0 mm | - | 730 W/m² | - |
| 1787938838 | 25° C | 70% | 1014 hPa | 0 mm | - | 484 W/m² | - |
| 1787938533 | 24.44° C | 69% | 1013.9 hPa | 0 mm | - | 806 W/m² | - |
| 1787938229 | 24.44° C | 73% | 1014 hPa | 0 mm | - | 690 W/m² | - |
| 1787937928 | 24.44° C | 70% | 1014 hPa | 0 mm | - | 249 W/m² | - |
| 1787937624 | 24.44° C | 68% | 1014.2 hPa | 0 mm | - | 130 W/m² | - |
* Rain latest hour (hover to see other rain measurements)
** Current wind speed in m/s (hover to see current wind gust speed)